Temp
19 19 19 21 22 23 23 23 22 24 25 21 20 20 21 23 21 21 22 23 21 21 22 22 20 20 18 16 14 12 10 10 9 8 8 7 7 7 6 7 6 7 7 6
20 19 21 22 23 22 21 21 22 23 23 21 20 20 21 21 22 22 22 22 22 21 21 19 18 18 17 15 13 12 10 9 9 8 8 7 7 6 7 6 6 6 5 6
20 22 22 21 21 21 21 20 21 21 21 19 18 17 18 19 21 21 21 21 21 20 20 16 16 16 16 14 13 12 10 9 8 7 7 7 7 7 6 5 5 5 5 6
20 22 22 21 21 21 20 21 21 20 19 18 18 17 20 22 21 20 20 20 21 20 19 17 15 14 14 13 13 12 10 9 8 8 7 7 6 5 5 6 5 5 4 5
20 20 18 19 20 21 21 19 19 19 18 17 18 16 19 21 20 21 21 20 22 21 17 15 15 15 14 13 12 11 10 10 8 8 7 6 6 6 7 6 5 4 4 4
19 18 18 20 17 18 17 18 18 18 17 14 17 18 20 20 20 22 21 20 21 17 16 15 15 15 13 13 12 11 10 9 9 8 7 6 6 6 6 5 4 4 4 3
19 18 18 17 17 16 17 18 15 14 13 16 19 18 22 21 21 21 21 22 18 15 14 13 12 11 12 11 10 10 9 9 8 8 7 6 6 6 6 5 5 4 3 2
18 19 18 15 17 18 15 16 13 15 14 20 21 17 20 22 22 20 20 22 16 14 13 12 11 11 11 11 10 9 8 8 7 7 6 6 6 6 6 5 5 4 4 3
19 20 14 16 16 18 16 14 18 16 10 12 19 19 21 21 20 20 21 19 15 14 13 12 12 11 11 10 9 9 8 7 7 6 5 5 5 5 5 5 5 4 3 3
20 19 16 13 14 15 15 15 15 14 13 13 20 19 21 21 22 19 19 17 16 15 13 12 11 10 12 11 10 8 7 7 7 6 5 5 4 5 4 4 4 3 3 2
18 18 15 13 12 14 12 13 14 16 14 15 18 19 19 21 21 19 18 18 17 16 14 13 12 12 12 11 10 8 7 7 7 7 5 4 4 4 3 3 3 3 2 1
17 15 14 18 18 15 16 17 16 16 16 13 16 19 19 20 22 19 18 18 17 16 14 13 12 10 11 10 9 8 7 6 6 6 5 4 4 3 2 2 2 2 1 0
15 11 11 14 16 13 14 15 17 17 16 17 16 18 21 22 22 18 17 16 16 16 15 13 13 10 10 10 9 8 7 6 6 6 5 4 3 2 1 1 1 0 -0 -1
13 12 11 12 15 17 16 16 15 16 15 16 16 17 20 21 21 21 22 21 16 15 14 14 13 10 9 10 9 8 7 7 6 5 4 2 1 -0 -0 1 0 -1 -2 -2
9 10 10 11 13 14 15 15 15 13 15 14 16 17 18 19 20 20 20 19 18 18 17 16 13 11 9 8 9 8 8 7 6 4 3 1 -0 -1 -0 -0 -1 -2 -3 -3
9 9 9 9 10 11 11 13 13 14 14 15 15 15 17 18 19 18 18 19 18 17 17 13 11 10 8 6 8 7 7 5 5 3 1 -0 -1 -2 -1 -2 -3 -4 -4 -5
9 9 9 10 10 10 10 10 11 13 14 15 14 16 17 17 17 17 18 18 18 17 16 11 10 9 7 8 9 6 6 4 3 1 -1 -2 -3 -3 -3 -4 -5 -5 -6 -6
8 8 9 11 11 11 11 14 13 13 14 14 15 16 17 17 18 17 17 17 15 15 13 10 8 8 10 11 8 6 5 3 0 -1 -2 -3 -4 -4 -5 -6 -6 -6 -7 -7
11 10 11 11 11 13 13 14 13 13 13 14 14 15 16 16 16 16 17 17 15 16 12 9 8 9 10 6 5 4 0 -1 -2 -3 -4 -5 -5 -6 -6 -7 -7 -7 -8 -8
10 11 11 11 11 12 14 15 16 14 12 15 15 15 15 15 13 15 16 13 11 11 9 7 5 7 5 4 3 -0 -2 -3 -3 -4 -5 -6 -6 -7 -7 -8 -8 -8 -8 -9
9 9 10 11 11 11 13 14 14 11 13 16 16 16 16 14 14 15 12 12 11 9 6 5 4 2 2 1 -0 -2 -3 -4 -4 -5 -6 -7 -7 -7 -7 -8 -8 -9 -10 -11
10 10 11 10 10 11 6 10 11 7 8 8 7 7 7 8 8 9 9 8 8 8 4 1 0 -0 0 -0 -2 -3 -4 -4 -5 -6 -8 -9 -9 -9 -8 -9 -11 -11 -12 -12
6 5 5 5 6 5 5 4 5 5 6 5 5 6 6 5 6 6 8 8 7 6 4 1 -1 -3 -2 -3 -3 -4 -4 -5 -7 -9 -10 -11 -11 -11 -11 -11 -12 -13 -12 -13
4 6 5 3 5 5 7 8 8 7 6 6 6 5 5 6 6 7 4 5 5 4 2 -1 -4 -4 -5 -4 -4 -4 -5 -7 -9 -10 -12 -12 -12 -13 -13 -13 -13 -13 -13 -13
3 3 3 3 4 5 6 7 7 5 5 3 3 4 4 5 5 6 6 6 5 3 -1 -2 -3 -3 -4 -6 -5 -5 -7 -9 -10 -11 -12 -12 -13 -13 -14 -13 -13 -13 -13 -12
3 2 2 2 4 5 5 5 4 2 1 -1 -0 1 3 3 4 4 5 5 5 5 1 -3 -4 -4 -5 -6 -6 -8 -9 -10 -11 -12 -12 -13 -13 -14 -14 -14 -13 -13 -13 -12
Height
781 792 790 775 774 769 769 773 775 758 750 766 765 759 749 738 743 743 735 729 729 724 719 722 727 736 744 752 760 766 772 778 783 787 789 793 795 799 802 805 807 808 810 812
782 781 763 762 762 766 771 775 768 751 748 758 757 755 743 739 731 729 727 723 717 715 714 713 720 728 734 742 751 759 765 770 774 778 783 788 791 795 798 800 802 804 806 809
767 753 754 762 763 768 762 771 764 763 754 759 761 764 750 735 726 720 716 711 707 707 710 712 715 721 730 738 744 749 755 762 769 774 780 785 788 791 795 795 796 798 800 803
759 749 749 759 759 762 761 751 755 758 768 773 754 763 735 724 723 719 711 706 698 698 697 703 711 717 720 728 737 745 751 756 761 767 772 774 775 776 779 783 788 792 796 798
748 751 756 757 747 753 748 753 757 758 766 765 761 772 730 718 722 711 704 698 687 689 692 699 703 708 716 724 731 739 746 752 756 759 763 767 770 774 775 780 785 789 792 794
750 749 754 748 753 750 755 756 761 761 768 779 756 756 717 719 709 700 695 691 682 689 691 695 700 707 713 720 726 733 739 743 748 752 755 758 761 768 770 773 777 781 785 788
743 747 745 749 757 758 757 759 780 789 790 757 725 737 702 693 690 689 688 679 683 687 692 695 699 702 708 713 719 725 730 734 739 744 747 749 754 761 763 765 770 775 779 783
750 744 738 740 741 745 759 755 777 780 775 723 711 724 702 677 673 673 675 664 679 685 688 691 693 697 702 707 712 717 720 726 729 734 738 743 748 752 756 758 763 768 772 776
741 732 733 732 734 734 747 759 735 750 771 767 708 693 676 672 673 668 665 670 677 681 684 687 689 693 698 701 704 708 714 719 724 727 734 737 741 744 746 751 758 763 767 771
719 732 727 741 741 740 739 738 752 754 766 764 688 703 685 677 667 669 670 672 673 677 680 684 684 686 690 696 699 704 708 711 715 719 724 729 735 737 740 745 750 756 762 766
719 727 734 740 744 734 749 744 741 733 736 735 719 685 661 658 655 664 668 667 670 672 673 674 676 679 684 687 690 693 699 701 706 710 715 721 726 730 734 738 743 749 755 760
721 729 735 715 704 712 713 713 719 724 716 727 717 666 654 656 650 658 664 664 664 664 666 668 668 673 677 679 683 686 690 693 696 701 706 711 717 722 727 731 737 743 748 753
736 749 747 731 718 722 718 711 703 701 706 705 703 674 654 645 651 656 660 660 661 660 662 663 664 668 667 669 673 675 678 682 688 694 698 703 710 715 718 724 732 738 743 747
734 738 741 730 709 697 704 702 704 704 709 690 689 670 646 650 653 648 644 645 657 655 656 657 658 660 658 658 661 666 669 673 678 685 691 697 701 709 713 719 728 733 736 740
740 729 731 722 714 703 700 700 701 710 696 695 673 674 658 632 651 640 638 639 646 646 648 647 649 648 648 650 652 654 659 664 669 677 683 689 695 702 710 717 723 729 733 737
718 718 723 716 709 704 705 699 697 685 684 683 675 669 636 638 635 634 634 631 641 636 634 638 637 638 640 640 642 645 649 654 663 670 677 685 692 700 707 713 720 725 730 733
709 710 706 693 694 701 702 688 674 670 664 656 663 635 623 635 626 620 619 621 624 624 623 630 629 628 630 630 630 635 641 648 657 667 673 680 687 694 703 711 717 722 726 730
695 698 691 668 677 668 649 649 653 643 634 632 630 623 621 609 606 615 616 612 612 613 618 617 618 619 619 618 621 625 632 638 648 657 664 671 679 688 694 702 709 716 721 725
671 672 667 661 651 632 634 628 632 627 611 611 622 613 604 607 608 609 602 598 604 603 605 603 605 607 611 614 620 628 633 639 642 649 656 662 668 676 685 693 699 708 715 721
658 654 655 647 631 622 610 609 604 604 618 604 594 591 598 598 613 597 584 592 597 594 594 595 599 604 607 609 613 621 630 638 643 646 651 661 667 671 681 690 693 698 706 713
651 651 632 622 617 613 605 601 604 623 604 593 591 587 590 598 593 588 591 590 587 586 591 595 596 600 606 610 612 617 623 628 634 641 645 650 659 666 675 683 689 692 699 706
635 623 618 622 614 608 633 615 620 637 630 625 624 623 621 619 611 606 598 594 590 590 596 598 598 604 609 610 610 615 619 624 632 637 642 648 651 657 668 679 687 691 694 701
661 664 662 651 638 634 636 646 643 643 635 637 632 623 624 625 621 618 610 599 594 595 595 595 592 594 602 609 609 609 614 622 627 636 642 648 650 657 661 670 680 688 692 697
669 658 657 663 641 639 631 622 628 627 627 625 625 627 622 619 614 606 605 596 588 593 597 594 597 599 597 600 606 607 612 617 622 630 639 643 647 651 661 668 676 683 689 696
681 669 664 653 647 636 631 633 625 618 620 624 622 619 613 616 608 601 595 587 582 583 587 588 590 590 590 590 596 599 603 610 619 623 635 641 645 647 655 665 671 678 685 691
677 669 662 647 640 639 628 621 625 629 632 636 629 617 616 610 601 596 588 580 573 575 577 583 580 580 578 586 588 593 596 601 613 617 630 634 638 647 651 659 670 679 684 690
Wind_Speed
7 5 12 20 16 18 13 15 16 20 8 9 15 17 18 17 9 11 15 17 12 14 12 27 34 35 35 36 37 37 37 34 34 33 32 29 29 26 24 21 19 17 14 11
4 16 19 9 11 9 8 12 17 16 8 9 11 13 12 10 16 16 17 17 18 11 9 10 27 35 37 39 39 38 40 39 39 39 36 26 30 26 25 22 21 18 16 13
19 8 18 11 11 12 18 13 19 17 12 5 4 7 12 11 18 20 19 19 18 12 10 10 17 27 32 34 40 42 42 40 37 35 34 20 25 18 23 24 24 22 19 16
17 17 18 15 15 9 21 9 10 11 7 9 9 7 8 7 9 10 14 13 16 9 9 12 13 21 31 35 38 39 37 39 39 36 37 36 32 28 28 35 28 23 20 17
7 4 6 13 20 10 15 5 4 4 6 6 7 7 7 11 9 12 11 13 17 6 10 12 15 25 28 33 37 39 37 38 37 40 38 38 34 30 26 27 25 24 21 18
17 3 3 4 3 1 4 1 4 3 2 8 12 12 8 8 9 6 8 12 10 8 8 8 13 23 26 34 35 36 38 39 41 41 41 40 37 32 28 32 31 27 23 19
6 19 4 4 2 1 3 4 3 3 2 11 12 13 17 5 7 10 11 18 9 9 9 9 11 12 21 29 33 37 40 37 42 44 43 42 40 36 36 36 34 29 24 22
6 6 17 9 15 6 8 9 5 7 5 17 5 8 6 9 12 11 14 15 10 10 9 10 11 12 20 26 34 35 37 37 39 43 42 40 40 39 38 38 35 31 28 24
7 8 5 5 2 8 5 7 3 3 1 4 11 11 6 7 11 11 15 7 9 9 9 10 9 14 20 25 32 36 35 35 36 39 37 38 40 39 40 37 33 30 27 23
4 9 6 2 4 3 3 1 2 2 2 8 21 10 15 7 17 11 8 9 7 8 9 9 9 13 25 28 31 33 34 35 36 37 39 37 39 41 38 37 35 32 27 23
5 6 3 7 9 10 3 4 5 2 5 7 14 12 3 5 6 9 10 7 7 8 9 10 9 16 25 29 32 33 35 37 37 40 39 36 39 40 39 38 36 32 27 24
4 1 5 14 4 1 8 11 11 9 11 4 6 26 7 4 3 8 7 8 8 7 9 9 10 12 20 27 27 32 32 34 39 38 40 41 40 40 39 38 35 31 27 24
5 2 4 12 11 3 6 7 12 11 8 16 18 23 8 21 19 8 9 9 8 9 9 9 7 11 13 21 25 30 32 36 37 39 40 39 40 41 40 38 34 30 27 24
4 10 12 16 15 7 9 14 13 15 11 25 22 31 34 28 23 23 23 15 9 11 9 8 8 10 11 22 25 27 29 35 38 38 37 35 37 37 38 37 34 31 28 25
5 10 18 27 31 31 30 29 27 13 21 22 27 25 28 34 18 24 19 14 6 12 14 12 10 10 10 14 24 28 29 35 38 35 35 34 34 36 36 35 33 30 27 24
14 9 16 22 27 28 29 28 26 33 33 29 30 31 35 31 29 28 25 27 14 17 16 10 11 10 10 10 21 26 28 32 37 34 31 32 34 35 35 34 33 29 25 22
7 8 8 14 22 23 19 32 36 34 31 35 30 41 40 29 33 32 30 25 20 15 16 10 10 10 9 16 28 27 29 31 34 30 31 34 34 35 34 33 31 27 25 21
11 16 11 14 11 20 20 21 27 36 37 35 33 34 31 37 35 26 17 22 14 13 13 10 8 8 14 18 24 26 32 36 35 33 34 35 36 34 33 32 30 27 23 19
23 20 13 12 17 22 7 19 23 23 34 33 25 28 33 29 28 26 25 23 15 19 13 9 10 9 9 15 21 26 25 28 32 30 31 34 38 37 35 33 30 25 21 17
28 25 21 18 15 19 16 26 27 20 18 14 21 26 25 23 14 19 26 7 12 14 9 9 10 9 16 21 29 27 23 24 25 30 33 33 35 36 33 32 30 26 21 17
7 15 24 22 19 15 8 9 4 14 18 19 21 21 18 12 11 14 6 7 6 7 8 5 8 8 14 24 28 21 24 26 29 31 34 37 39 37 36 33 29 26 21 15
11 12 13 13 17 19 14 8 11 14 21 16 17 19 21 19 17 12 11 9 7 5 3 6 6 5 13 24 25 18 21 25 29 32 32 32 36 36 35 31 25 22 20 16
5 3 6 5 6 11 8 10 15 16 10 16 20 22 18 19 19 11 10 10 8 6 6 7 7 10 17 22 23 19 21 30 32 30 29 30 32 32 33 32 28 22 19 16
10 21 13 13 6 24 29 26 14 10 14 12 14 17 17 18 19 18 9 8 6 6 9 9 7 8 11 24 25 23 28 33 33 29 28 29 30 30 29 26 25 21 19 14
14 20 17 24 21 23 20 16 19 13 15 16 16 15 15 17 18 15 15 13 8 7 6 14 11 12 14 24 26 30 35 36 30 29 28 27 26 28 27 21 23 19 17 18
13 17 14 20 23 21 24 23 21 17 17 15 17 19 17 15 17 15 13 11 10 12 6 8 11 14 19 24 25 30 35 37 34 29 28 28 27 25 25 25 20 14 16 14
Wind_Direction
194 184 215 221 214 231 256 267 270 270 257 177 231 240 252 261 240 256 262 259 252 247 236 207 193 191 189 189 186 188 186 191 193 190 188 193 200 197 202 202 205 210 212 215
218 224 229 244 252 264 272 271 266 277 294 211 249 253 254 264 267 255 256 267 261 254 240 183 169 182 185 183 185 187 190 194 196 195 195 196 200 205 206 203 207 208 212 218
221 194 215 228 249 248 248 245 259 264 285 221 319 268 254 252 252 260 262 254 259 243 226 169 169 176 176 179 184 189 192 195 195 197 197 192 192 185 191 203 206 206 210 217
253 243 245 255 248 213 263 231 257 266 278 256 161 282 222 226 230 227 244 253 255 238 218 163 166 173 177 184 187 192 192 195 198 196 198 195 184 177 197 205 205 204 210 212
220 202 194 228 240 226 265 171 219 268 261 302 252 280 227 202 233 243 238 253 260 219 178 159 178 177 180 181 189 193 195 199 198 199 200 200 203 207 210 205 200 200 206 216
261 100 275 249 71 97 129 114 218 233 211 255 207 214 241 203 212 223 232 248 243 155 155 150 157 168 177 186 191 192 197 202 203 202 202 206 205 205 191 182 186 199 207 214
218 236 171 137 177 165 179 143 279 287 191 252 187 221 239 182 177 191 212 243 150 156 166 168 163 171 177 183 187 194 198 201 202 205 204 207 210 205 197 195 201 199 200 206
211 267 182 178 208 174 187 179 173 237 219 274 229 255 247 214 231 207 203 244 157 170 174 180 178 180 186 186 190 194 199 203 200 204 205 206 210 206 205 206 208 207 206 210
213 245 27 146 141 159 183 211 198 248 130 307 240 262 305 254 238 218 225 162 174 182 179 185 182 183 188 192 193 200 200 204 203 204 204 206 209 206 205 204 208 207 208 209
271 268 177 121 48 287 201 200 123 219 256 241 275 282 273 197 237 219 225 218 223 204 193 189 190 186 192 200 203 204 205 205 205 206 206 205 208 207 205 203 205 207 209 212
220 215 226 126 197 184 155 237 232 246 192 230 271 271 304 161 149 196 222 219 231 204 195 191 198 194 197 203 204 203 205 205 206 207 204 204 206 205 202 203 208 208 208 213
206 240 248 233 181 234 216 224 185 221 237 230 235 264 153 120 138 149 191 196 204 193 197 202 204 182 193 204 202 203 205 204 207 205 203 203 204 200 198 202 205 205 206 211
342 356 324 302 288 195 202 211 230 244 258 243 244 259 188 255 265 230 184 211 213 214 218 223 202 192 202 204 201 202 203 205 205 203 201 198 198 195 195 198 202 202 203 207
136 226 221 238 241 261 269 238 235 226 241 248 246 258 274 266 269 277 275 274 209 220 220 231 239 211 206 205 203 204 205 203 201 198 195 190 190 191 192 198 201 200 202 203
188 224 225 235 244 253 256 263 271 262 243 245 266 260 264 270 267 263 270 269 249 282 271 262 244 234 214 207 205 203 203 198 195 188 188 188 186 189 192 198 197 199 201 205
179 227 215 231 238 247 255 258 261 254 253 254 254 268 255 269 278 273 273 268 273 269 266 249 236 230 225 208 204 202 198 190 188 185 182 179 181 182 191 192 194 196 200 202
193 211 209 235 230 241 248 240 246 253 248 243 247 245 259 262 259 263 269 277 272 259 267 225 228 231 228 222 210 197 191 181 178 174 172 174 173 178 186 191 192 194 200 202
206 215 226 251 236 231 230 246 235 238 243 247 243 248 250 252 260 265 271 269 263 263 266 244 225 221 232 232 209 189 175 172 169 168 170 172 173 176 180 182 186 193 198 201
225 231 244 246 242 259 247 229 226 227 239 244 258 246 248 260 262 271 255 254 265 267 251 230 202 201 205 180 174 167 162 167 169 173 170 170 174 173 175 179 183 188 190 194
229 227 234 236 246 253 246 240 247 248 253 248 230 241 240 243 249 250 259 252 220 233 228 212 174 177 170 172 170 156 160 167 178 176 173 174 175 173 174 180 179 182 185 189
215 234 234 232 246 252 236 273 348 243 267 255 259 261 269 254 242 265 269 245 232 220 191 157 165 162 181 173 165 162 167 186 184 175 170 172 177 176 180 178 179 178 174 173
268 239 228 235 237 246 2 318 261 341 329 1 7 355 347 342 342 333 308 278 248 239 104 145 143 174 190 184 170 175 189 181 174 170 167 168 168 169 173 173 172 173 170 172
268 1 302 332 323 320 316 311 299 297 325 328 315 311 309 310 316 316 310 322 319 275 240 212 190 169 192 198 191 184 185 171 164 162 161 162 161 165 167 166 166 164 170 165
297 301 297 316 310 311 306 303 290 298 302 323 340 327 316 301 296 290 266 253 247 244 244 203 176 202 199 197 201 199 173 167 162 161 163 160 156 153 163 163 165 161 164 169
286 302 293 286 290 295 283 300 305 301 313 311 303 293 281 281 285 291 295 293 284 240 212 192 205 213 217 191 196 189 174 169 166 160 162 162 157 153 153 157 162 160 173 178
272 273 282 282 291 289 299 319 326 333 334 334 323 313 307 310 297 292 283 285 286 282 235 214 212 209 204 193 187 182 175 171 168 161 167 166 156 155 150 146 145 159 165 167